THY6805 LTAC-LTFO

Flight info

Callsign THY6805
Flight time 1h 10m
Altitude 35000
Route GURBU1B/21R GURBU UL615 SIV UW706 TBN UN37 ODZOL DCT LTFO/24
Aircraft A321/M-CDT/C

Departure

Time 2026-05-06 16:05
Airport Esenboğa International Airport (LTAC)

Arrival

Time 2026-05-06 17:15
Airport Rize–Artvin Airport (LTFO)
Time Latitude Longitude Altitude Speed Heading
2026-05-06 15:25 40.11704 32.99498 3113 ft 0 kts 173°
2026-05-06 15:55 40.11718 32.99495 3113 ft 3 kts 151°
2026-05-06 15:55 40.11733 32.99480 3113 ft 3 kts 122°
2026-05-06 15:55 40.11741 32.99459 3113 ft 3 kts 127°
2026-05-06 15:56 40.11754 32.99442 3113 ft 3 kts 155°
2026-05-06 15:56 40.11771 32.99436 3113 ft 3 kts 182°
2026-05-06 15:56 40.11788 32.99440 3113 ft 3 kts 210°
2026-05-06 15:56 40.11802 32.99454 3113 ft 3 kts 237°
2026-05-06 15:57 40.11808 32.99470 3113 ft 0 kts 257°
2026-05-06 15:57 40.11808 32.99468 3113 ft 1 kts 257°
2026-05-06 15:57 40.11803 32.99444 3113 ft 5 kts 257°
2026-05-06 15:58 40.11792 32.99381 3113 ft 9 kts 257°
2026-05-06 15:58 40.11774 32.99278 3113 ft 14 kts 257°
2026-05-06 15:58 40.11767 32.99137 3113 ft 17 kts 281°
2026-05-06 15:58 40.11853 32.99064 3114 ft 17 kts 18°
2026-05-06 15:59 40.11953 32.99143 3114 ft 17 kts 36°
2026-05-06 15:59 40.12049 32.99236 3116 ft 17 kts 37°
2026-05-06 15:59 40.12144 32.99329 3117 ft 17 kts 37°
2026-05-06 15:59 40.12240 32.99422 3118 ft 17 kts 36°
2026-05-06 16:00 40.12307 32.99484 3119 ft 18 kts 36°
2026-05-06 16:00 40.12406 32.99577 3120 ft 18 kts 36°
2026-05-06 16:00 40.12505 32.99672 3122 ft 18 kts 36°
2026-05-06 16:00 40.12605 32.99767 3123 ft 18 kts 36°
2026-05-06 16:01 40.12707 32.99865 3123 ft 19 kts 36°
2026-05-06 16:01 40.12813 32.99965 3122 ft 19 kts 36°
2026-05-06 16:01 40.12920 33.00066 3125 ft 19 kts 36°
2026-05-06 16:01 40.13028 33.00170 3124 ft 19 kts 37°
2026-05-06 16:02 40.13137 33.00276 3125 ft 20 kts 36°
2026-05-06 16:02 40.13247 33.00380 3126 ft 19 kts 36°
2026-05-06 16:02 40.13357 33.00485 3128 ft 20 kts 36°
2026-05-06 16:02 40.13467 33.00591 3131 ft 20 kts 37°
2026-05-06 16:03 40.13578 33.00699 3132 ft 20 kts 36°
2026-05-06 16:03 40.13689 33.00807 3133 ft 20 kts 36°
2026-05-06 16:03 40.13802 33.00915 3134 ft 20 kts 36°
2026-05-06 16:03 40.13917 33.01023 3135 ft 20 kts 36°
2026-05-06 16:04 40.14046 33.01065 3136 ft 20 kts 339°
2026-05-06 16:04 40.14101 33.00919 3136 ft 19 kts 256°
2026-05-06 16:04 40.14007 33.00802 3135 ft 20 kts 218°
2026-05-06 16:04 40.13778 33.00576 3133 ft 74 kts 216°
2026-05-06 16:05 40.13188 33.00009 3125 ft 134 kts 216°
2026-05-06 16:05 40.12295 32.99165 3158 ft 178 kts 218°
2026-05-06 16:05 40.11254 32.98246 3761 ft 181 kts 213°
2026-05-06 16:05 40.10162 32.97359 4312 ft 185 kts 213°
2026-05-06 16:06 40.09068 32.96473 4824 ft 184 kts 212°
2026-05-06 16:06 40.07962 32.95571 5277 ft 185 kts 212°
2026-05-06 16:06 40.06882 32.94698 5727 ft 186 kts 213°
2026-05-06 16:06 40.05775 32.93814 6189 ft 188 kts 213°
2026-05-06 16:07 40.04617 32.92899 6663 ft 199 kts 213°
2026-05-06 16:07 40.03395 32.91923 7121 ft 212 kts 213°
2026-05-06 16:07 40.02084 32.90898 7557 ft 228 kts 208°
2026-05-06 16:07 40.00467 32.90539 7977 ft 253 kts 170°
2026-05-06 16:08 39.98842 32.91604 8463 ft 277 kts 135°
2026-05-06 16:08 39.97887 32.93804 9036 ft 286 kts 101°
2026-05-06 16:08 39.97900 32.96389 9626 ft 288 kts 79°
2026-05-06 16:08 39.98380 32.98925 10192 ft 290 kts 72°
2026-05-06 16:09 39.99041 33.01476 10740 ft 303 kts 70°
2026-05-06 16:09 39.99763 33.04123 11290 ft 316 kts 70°
2026-05-06 16:09 40.00486 33.06880 11843 ft 327 kts 71°
2026-05-06 16:09 40.01188 33.09752 12415 ft 338 kts 72°
2026-05-06 16:10 40.01869 33.12728 12996 ft 347 kts 73°
2026-05-06 16:10 40.02542 33.15795 13584 ft 356 kts 73°
2026-05-06 16:10 40.03218 33.18947 14150 ft 364 kts 74°
2026-05-06 16:10 40.03900 33.22165 14682 ft 373 kts 73°
2026-05-06 16:11 40.04597 33.25455 15218 ft 380 kts 73°
2026-05-06 16:11 40.05309 33.28810 15771 ft 387 kts 73°
2026-05-06 16:11 40.06035 33.32225 16336 ft 394 kts 73°
2026-05-06 16:11 40.06777 33.35695 16906 ft 400 kts 73°
2026-05-06 16:12 40.07532 33.39223 17490 ft 406 kts 73°
2026-05-06 16:12 40.08299 33.42802 18085 ft 412 kts 73°
2026-05-06 16:12 40.09074 33.46426 18639 ft 417 kts 73°
2026-05-06 16:12 40.09855 33.50093 19168 ft 421 kts 72°
2026-05-06 16:13 40.10641 33.53790 19706 ft 425 kts 72°
2026-05-06 16:13 40.11432 33.57522 20254 ft 428 kts 72°
2026-05-06 16:13 40.12241 33.61336 20683 ft 433 kts 72°
2026-05-06 16:13 40.13049 33.65156 21082 ft 439 kts 72°
2026-05-06 16:14 40.13864 33.69028 21422 ft 445 kts 72°
2026-05-06 16:14 40.14691 33.72963 21683 ft 452 kts 72°
2026-05-06 16:14 40.15530 33.76950 21958 ft 458 kts 72°
2026-05-06 16:14 40.16226 33.81046 22225 ft 466 kts 79°
2026-05-06 16:15 40.16388 33.85309 22498 ft 475 kts 90°
2026-05-06 16:15 40.15969 33.89623 22838 ft 480 kts 98°
2026-05-06 16:15 40.15350 33.93914 23249 ft 482 kts 98°
2026-05-06 16:15 40.14759 33.98239 23663 ft 483 kts 96°
2026-05-06 16:16 40.14252 34.02578 24012 ft 484 kts 95°
2026-05-06 16:16 40.13804 34.06946 24369 ft 485 kts 94°
2026-05-06 16:16 40.13380 34.11323 24729 ft 486 kts 94°
2026-05-06 16:16 40.12955 34.15705 25100 ft 487 kts 94°
2026-05-06 16:17 40.12514 34.20091 25469 ft 487 kts 95°
2026-05-06 16:17 40.12046 34.24477 25843 ft 488 kts 95°
2026-05-06 16:17 40.11561 34.28860 26223 ft 488 kts 95°
2026-05-06 16:17 40.11068 34.33242 26692 ft 486 kts 95°
2026-05-06 16:18 40.10574 34.37593 27214 ft 483 kts 95°
2026-05-06 16:18 40.10083 34.41920 27742 ft 481 kts 95°
2026-05-06 16:18 40.09597 34.46223 28281 ft 478 kts 95°
2026-05-06 16:18 40.09114 34.50509 28850 ft 475 kts 95°
2026-05-06 16:19 40.08638 34.54759 29394 ft 472 kts 95°
2026-05-06 16:19 40.08167 34.58985 29928 ft 470 kts 95°
2026-05-06 16:19 40.07694 34.63219 30204 ft 472 kts 95°
2026-05-06 16:19 40.07215 34.67472 30447 ft 475 kts 95°
2026-05-06 16:20 40.06730 34.71744 30696 ft 477 kts 95°
2026-05-06 16:20 40.06241 34.76030 30939 ft 479 kts 95°
2026-05-06 16:20 40.05749 34.80340 31190 ft 480 kts 95°
2026-05-06 16:20 40.05255 34.84652 31449 ft 481 kts 95°
2026-05-06 16:21 40.04757 34.88968 31771 ft 480 kts 96°
2026-05-06 16:21 40.04258 34.93270 32147 ft 478 kts 96°
2026-05-06 16:21 40.03752 34.97606 32537 ft 476 kts 96°
2026-05-06 16:21 40.03250 35.01876 32934 ft 474 kts 96°
2026-05-06 16:22 40.02749 35.06120 33338 ft 472 kts 96°
2026-05-06 16:22 40.02253 35.10338 33738 ft 469 kts 96°
2026-05-06 16:22 40.01761 35.14535 34133 ft 467 kts 96°
2026-05-06 16:22 40.01270 35.18702 34481 ft 464 kts 97°
2026-05-06 16:23 40.00780 35.22843 34825 ft 460 kts 97°
2026-05-06 16:23 40.00291 35.26972 35025 ft 461 kts 97°
2026-05-06 16:23 39.99298 35.35334 35072 ft 473 kts 97°
2026-05-06 16:24 39.98256 35.43832 35071 ft 476 kts 98°
2026-05-06 16:24 39.97162 35.52353 35071 ft 477 kts 98°
2026-05-06 16:25 39.96062 35.60878 35078 ft 476 kts 98°
2026-05-06 16:25 39.94982 35.69357 35076 ft 472 kts 98°
2026-05-06 16:26 39.93912 35.77773 35056 ft 470 kts 98°
2026-05-06 16:26 39.92830 35.86142 35050 ft 466 kts 98°
2026-05-06 16:27 39.91746 35.94431 35090 ft 462 kts 98°
2026-05-06 16:27 39.90669 36.02637 35096 ft 458 kts 98°
2026-05-06 16:28 39.89600 36.10772 35098 ft 454 kts 99°
2026-05-06 16:28 39.88534 36.18842 35104 ft 450 kts 99°
2026-05-06 16:29 39.87462 36.26897 35104 ft 447 kts 99°
2026-05-06 16:29 39.86349 36.34829 35105 ft 444 kts 100°
2026-05-06 16:30 39.85586 36.40032 35107 ft 442 kts 100°
2026-05-06 16:30 39.84170 36.50520 35115 ft 438 kts 99°
2026-05-06 16:31 39.83155 36.58299 35123 ft 434 kts 99°
2026-05-06 16:31 39.82111 36.66143 35132 ft 447 kts 99°
2026-05-06 16:32 39.81201 36.72833 35134 ft 457 kts 100°
2026-05-06 16:32 39.80090 36.81084 35142 ft 469 kts 97°
2026-05-06 16:33 39.80255 36.89571 35141 ft 474 kts 78°
2026-05-06 16:34 39.84208 37.01413 35137 ft 477 kts 59°
2026-05-06 16:34 39.87478 37.08938 35132 ft 478 kts 60°
2026-05-06 16:35 39.90736 37.16487 35133 ft 478 kts 60°
2026-05-06 16:35 39.93984 37.24046 35127 ft 479 kts 60°
2026-05-06 16:36 39.97238 37.31618 35129 ft 479 kts 60°
2026-05-06 16:36 40.00495 37.39196 35130 ft 479 kts 60°
2026-05-06 16:37 40.03751 37.46785 35135 ft 479 kts 60°
2026-05-06 16:37 40.06993 37.54378 35136 ft 479 kts 61°
2026-05-06 16:38 40.10240 37.61983 35138 ft 479 kts 61°
2026-05-06 16:38 40.13500 37.69584 35140 ft 479 kts 61°
2026-05-06 16:39 40.16758 37.77185 35115 ft 479 kts 61°
2026-05-06 16:39 40.19999 37.84789 35122 ft 479 kts 61°
2026-05-06 16:40 40.23230 37.92401 35113 ft 478 kts 62°
2026-05-06 16:40 40.26459 38.00015 35120 ft 478 kts 62°
2026-05-06 16:41 40.29679 38.07641 35123 ft 478 kts 62°
2026-05-06 16:41 40.32870 38.15215 35125 ft 479 kts 62°
2026-05-06 16:42 40.36022 38.22909 34978 ft 479 kts 63°
2026-05-06 16:42 40.37557 38.26777 34848 ft 478 kts 63°
2026-05-06 16:42 40.39101 38.30644 34714 ft 478 kts 63°
2026-05-06 16:42 40.40693 38.34466 34537 ft 478 kts 62°
2026-05-06 16:43 40.42330 38.38262 34353 ft 478 kts 61°
2026-05-06 16:43 40.43988 38.42043 34166 ft 477 kts 61°
2026-05-06 16:43 40.45640 38.45808 33891 ft 475 kts 61°
2026-05-06 16:43 40.47276 38.49556 33564 ft 472 kts 62°
2026-05-06 16:44 40.48890 38.53288 33175 ft 468 kts 62°
2026-05-06 16:44 40.50484 38.57008 32800 ft 465 kts 62°
2026-05-06 16:44 40.52039 38.60701 32408 ft 461 kts 63°
2026-05-06 16:44 40.53558 38.64404 32021 ft 457 kts 64°
2026-05-06 16:45 40.55044 38.68082 31653 ft 454 kts 64°
2026-05-06 16:45 40.56514 38.71736 31279 ft 451 kts 64°
2026-05-06 16:45 40.57977 38.75365 30916 ft 448 kts 64°
2026-05-06 16:45 40.59435 38.78965 30547 ft 444 kts 64°
2026-05-06 16:46 40.60888 38.82541 30181 ft 441 kts 64°
2026-05-06 16:46 40.62333 38.86093 29747 ft 438 kts 64°
2026-05-06 16:46 40.63766 38.89613 29308 ft 435 kts 64°
2026-05-06 16:46 40.65188 38.93113 28879 ft 432 kts 64°
2026-05-06 16:47 40.66591 38.96593 28475 ft 429 kts 65°
2026-05-06 16:47 40.67982 39.00058 28062 ft 426 kts 64°
2026-05-06 16:47 40.69361 39.03495 27648 ft 423 kts 65°
2026-05-06 16:47 40.70734 39.06919 27248 ft 421 kts 65°
2026-05-06 16:48 40.72093 39.10308 26852 ft 418 kts 65°
2026-05-06 16:48 40.73450 39.13695 26456 ft 416 kts 65°
2026-05-06 16:48 40.74793 39.17049 26083 ft 413 kts 65°
2026-05-06 16:48 40.76127 39.20389 25707 ft 410 kts 65°
2026-05-06 16:49 40.77449 39.23708 25335 ft 407 kts 65°
2026-05-06 16:49 40.78762 39.27004 24962 ft 405 kts 65°
2026-05-06 16:49 40.80082 39.30323 24596 ft 402 kts 65°
2026-05-06 16:49 40.81379 39.33587 24236 ft 400 kts 65°
2026-05-06 16:50 40.82668 39.36828 23878 ft 398 kts 65°
2026-05-06 16:50 40.83953 39.40051 23493 ft 395 kts 65°
2026-05-06 16:50 40.85226 39.43249 23077 ft 393 kts 65°
2026-05-06 16:50 40.86491 39.46436 22655 ft 390 kts 65°
2026-05-06 16:51 40.87744 39.49601 22254 ft 388 kts 65°
2026-05-06 16:51 40.88989 39.52758 21861 ft 386 kts 65°
2026-05-06 16:51 40.90227 39.55897 21468 ft 384 kts 64°
2026-05-06 16:51 40.91455 39.59010 21077 ft 381 kts 64°
2026-05-06 16:52 40.92680 39.62109 20696 ft 379 kts 64°
2026-05-06 16:52 40.93897 39.65190 20312 ft 377 kts 64°
2026-05-06 16:52 40.95105 39.68261 19940 ft 375 kts 64°
2026-05-06 16:52 40.96303 39.71313 19573 ft 373 kts 64°
2026-05-06 16:53 40.97493 39.74353 19205 ft 371 kts 64°
2026-05-06 16:53 40.98677 39.77379 18845 ft 369 kts 64°
2026-05-06 16:53 40.99846 39.80386 18487 ft 367 kts 65°
2026-05-06 16:53 41.00952 39.83416 18083 ft 364 kts 67°
2026-05-06 16:54 41.01996 39.86449 17672 ft 360 kts 68°
2026-05-06 16:54 41.03003 39.89456 17312 ft 354 kts 68°
2026-05-06 16:54 41.03993 39.92421 16937 ft 349 kts 68°
2026-05-06 16:54 41.04973 39.95338 16572 ft 344 kts 68°
2026-05-06 16:55 41.05945 39.98211 16217 ft 340 kts 68°
2026-05-06 16:55 41.06912 40.01049 15865 ft 335 kts 68°
2026-05-06 16:55 41.07869 40.03845 15558 ft 331 kts 68°
2026-05-06 16:55 41.08820 40.06614 15317 ft 330 kts 68°
2026-05-06 16:56 41.09766 40.09380 15070 ft 329 kts 68°
2026-05-06 16:56 41.10705 40.12142 14823 ft 328 kts 68°
2026-05-06 16:56 41.11653 40.14926 14576 ft 327 kts 68°
2026-05-06 16:56 41.12520 40.17701 14345 ft 324 kts 74°
2026-05-06 16:57 41.13094 40.20581 14099 ft 322 kts 82°
2026-05-06 16:57 41.13457 40.23499 13838 ft 320 kts 83°
2026-05-06 16:57 41.13816 40.26385 13575 ft 314 kts 83°
2026-05-06 16:57 41.14171 40.29210 13307 ft 307 kts 83°
2026-05-06 16:58 41.14519 40.31981 13041 ft 301 kts 83°
2026-05-06 16:58 41.14859 40.34694 12779 ft 296 kts 83°
2026-05-06 16:58 41.15192 40.37366 12518 ft 291 kts 83°
2026-05-06 16:58 41.15519 40.39996 12261 ft 287 kts 83°
2026-05-06 16:59 41.15842 40.42601 12006 ft 285 kts 83°
2026-05-06 16:59 41.16157 40.45154 11758 ft 284 kts 83°
2026-05-06 16:59 41.16474 40.47733 11505 ft 282 kts 83°
2026-05-06 16:59 41.16790 40.50294 11253 ft 281 kts 82°
2026-05-06 17:00 41.17104 40.52845 11011 ft 279 kts 82°
2026-05-06 17:00 41.17416 40.55384 10770 ft 278 kts 82°
2026-05-06 17:00 41.17726 40.57909 10516 ft 276 kts 82°
2026-05-06 17:00 41.18033 40.60420 10272 ft 275 kts 82°
2026-05-06 17:01 41.18338 40.62919 10035 ft 273 kts 82°
2026-05-06 17:01 41.18639 40.65404 9761 ft 272 kts 82°
2026-05-06 17:01 41.18939 40.67882 9495 ft 271 kts 82°
2026-05-06 17:01 41.19237 40.70348 9231 ft 270 kts 82°
2026-05-06 17:02 41.19533 40.72809 8969 ft 269 kts 82°
2026-05-06 17:02 41.19830 40.75261 8708 ft 268 kts 82°
2026-05-06 17:02 41.20123 40.77701 8448 ft 267 kts 82°
2026-05-06 17:02 41.20415 40.80134 8204 ft 266 kts 82°
2026-05-06 17:03 41.20707 40.82558 7945 ft 265 kts 82°
2026-05-06 17:03 41.20999 40.84976 7687 ft 265 kts 82°
2026-05-06 17:03 41.21289 40.87389 7447 ft 264 kts 82°
2026-05-06 17:03 41.21573 40.89789 7193 ft 262 kts 82°
2026-05-06 17:04 41.21854 40.92155 6969 ft 257 kts 82°
2026-05-06 17:04 41.22133 40.94501 6746 ft 252 kts 82°
2026-05-06 17:04 41.22406 40.96775 6524 ft 247 kts 82°
2026-05-06 17:04 41.22581 40.98252 6367 ft 243 kts 82°
2026-05-06 17:05 41.22708 40.99326 6252 ft 241 kts 82°
2026-05-06 17:05 41.22963 41.01513 6018 ft 239 kts 82°
2026-05-06 17:05 41.23220 41.03687 5790 ft 238 kts 82°
2026-05-06 17:05 41.23476 41.05853 5553 ft 235 kts 82°
2026-05-06 17:06 41.23726 41.07961 5383 ft 226 kts 81°
2026-05-06 17:06 41.23978 41.09988 5170 ft 218 kts 81°
2026-05-06 17:06 41.24225 41.11941 4962 ft 211 kts 81°
2026-05-06 17:06 41.24465 41.13836 4750 ft 205 kts 81°
2026-05-06 17:07 41.24695 41.15668 4593 ft 196 kts 81°
2026-05-06 17:07 41.24905 41.17376 4484 ft 178 kts 83°
2026-05-06 17:07 41.24776 41.18901 4379 ft 159 kts 111°
2026-05-06 17:07 41.24177 41.20102 4267 ft 156 kts 138°
2026-05-06 17:08 41.23251 41.20820 4189 ft 154 kts 163°
2026-05-06 17:08 41.22194 41.20931 4106 ft 153 kts 189°
2026-05-06 17:08 41.21211 41.20428 3967 ft 152 kts 214°
2026-05-06 17:08 41.20490 41.19427 3860 ft 151 kts 240°
2026-05-06 17:09 41.20157 41.18121 3690 ft 150 kts 264°
2026-05-06 17:09 41.20271 41.16755 3550 ft 150 kts 287°
2026-05-06 17:09 41.20565 41.15427 3430 ft 150 kts 285°
2026-05-06 17:09 41.20854 41.14085 3314 ft 149 kts 285°
2026-05-06 17:10 41.21138 41.12762 3138 ft 148 kts 285°
2026-05-06 17:10 41.21419 41.11447 2959 ft 148 kts 285°
2026-05-06 17:10 41.21700 41.10137 2788 ft 147 kts 285°
2026-05-06 17:10 41.21979 41.08837 2570 ft 146 kts 285°
2026-05-06 17:11 41.22257 41.07542 2358 ft 146 kts 285°
2026-05-06 17:11 41.22536 41.06251 2164 ft 145 kts 285°
2026-05-06 17:11 41.22808 41.04961 1991 ft 145 kts 282°
2026-05-06 17:11 41.22816 41.03634 1745 ft 145 kts 259°
2026-05-06 17:12 41.22508 41.02368 1516 ft 143 kts 251°
2026-05-06 17:12 41.22182 41.01114 1429 ft 143 kts 251°
2026-05-06 17:12 41.21858 40.99864 1319 ft 143 kts 251°
2026-05-06 17:12 41.21535 40.98613 1175 ft 143 kts 251°
2026-05-06 17:13 41.21213 40.97369 1061 ft 142 kts 251°
2026-05-06 17:13 41.20891 40.96126 955 ft 142 kts 251°
2026-05-06 17:13 41.20569 40.94887 875 ft 142 kts 251°
2026-05-06 17:13 41.20247 40.93646 802 ft 142 kts 251°
2026-05-06 17:14 41.19924 40.92403 693 ft 142 kts 251°
2026-05-06 17:14 41.19603 40.91164 573 ft 142 kts 251°
2026-05-06 17:14 41.19281 40.89927 444 ft 141 kts 251°
2026-05-06 17:14 41.18960 40.88689 309 ft 142 kts 252°
2026-05-06 17:15 41.18640 40.87454 195 ft 141 kts 252°
2026-05-06 17:15 41.18323 40.86223 65 ft 136 kts 252°
2026-05-06 17:15 41.18156 40.85565 57 ft 11 kts 251°
2026-05-06 17:15 41.18132 40.85470 55 ft 11 kts 251°
2026-05-06 17:16 41.18108 40.85375 61 ft 11 kts 251°
2026-05-06 17:16 41.18080 40.85268 57 ft 14 kts 251°
2026-05-06 17:16 41.18046 40.85141 55 ft 15 kts 250°
2026-05-06 17:16 41.18008 40.85000 58 ft 17 kts 251°
2026-05-06 17:17 41.17969 40.84839 58 ft 19 kts 253°
2026-05-06 17:17 41.17926 40.84666 56 ft 20 kts 251°
2026-05-06 17:17 41.17878 40.84503 54 ft 14 kts 239°
2026-05-06 17:17 41.17821 40.84429 57 ft 11 kts 195°
2026-05-06 17:18 41.17752 40.84446 58 ft 10 kts 162°
2026-05-06 17:18 41.17690 40.84473 58 ft 7 kts 162°
2026-05-06 17:18 41.17636 40.84489 58 ft 8 kts 181°
2026-05-06 17:18 41.17594 40.84441 58 ft 8 kts 251°
2026-05-06 17:19 41.17564 40.84391 63 ft 8 kts 184°
2026-05-06 17:19 41.17534 40.84406 63 ft 3 kts 158°
2026-05-06 17:19 41.17530 40.84408 63 ft 0 kts 159°